This is the latest recevied weather packets stored in our database for station/object OH6GPB-4. If no packets are shown the sender has not sent any weather packets the latest 10 day(s).
| Time | Temp. | Humidity | Pressure | Rain* | Wind** | Luminosity | Snow |
|---|---|---|---|---|---|---|---|
| 1777490261 | 3.89° C | 86% | 1019 hPa | 0 mm | - | 0 W/m² | - |
| 1777488447 | 3.33° C | 84% | 1019 hPa | 0 mm | - | 0 W/m² | - |
| 1777486655 | 3.89° C | 83% | 1019.2 hPa | 0 mm | - | 9 W/m² | - |
| 1777484848 | 3.89° C | 80% | 1019.5 hPa | 0 mm | - | 37 W/m² | - |
| 1777483049 | 3.89° C | 77% | 1019.5 hPa | 0 mm | - | 40 W/m² | - |
| 1777481251 | 4.44° C | 75% | 1019.8 hPa | 0 mm | - | 53 W/m² | - |
| 1777479445 | 4.44° C | 69% | 1019.9 hPa | 0 mm | - | 60 W/m² | - |
| 1777477657 | 5° C | 65% | 1020 hPa | 0 mm | - | 120 W/m² | - |
| 1777475854 | 5.56° C | 61% | 1020.4 hPa | 0 mm | - | 149 W/m² | - |
| 1777474050 | 5.56° C | 50% | 1020.5 hPa | 0 mm | - | 167 W/m² | - |
| 1777472245 | 6.11° C | 58% | 1020.6 hPa | 0 mm | - | 207 W/m² | - |
| 1777470442 | 6.11° C | 51% | 1020.9 hPa | 0 mm | - | 185 W/m² | - |
| 1777468658 | 6.67° C | 46% | 1021 hPa | 0 mm | - | 394 W/m² | - |
| 1777466852 | 6.67° C | 43% | 1021.1 hPa | 0 mm | - | 446 W/m² | - |
| 1777465055 | 6.67° C | 41% | 1021.5 hPa | 0 mm | - | 462 W/m² | - |
| 1777463244 | 6.67° C | 42% | 1021.7 hPa | 0 mm | - | 446 W/m² | - |
| 1777461442 | 6.67° C | 38% | 1022.1 hPa | 0 mm | - | 473 W/m² | - |
| 1777459656 | 6.11° C | 37% | 1022.5 hPa | 0 mm | - | 506 W/m² | - |
| 1777457847 | 6.11° C | 37% | 1022.7 hPa | 0 mm | - | 763 W/m² | - |
| 1777456043 | 6.11° C | 37% | 1023.1 hPa | 0 mm | - | 694 W/m² | - |
| 1777454256 | 5° C | 38% | 1023.1 hPa | 0 mm | - | 668 W/m² | - |
| 1777452448 | 5.56° C | 38% | 1023.3 hPa | 0 mm | - | 642 W/m² | - |
| 1777450657 | 5.56° C | 38% | 1023.5 hPa | 0 mm | - | 619 W/m² | - |
| 1777448856 | 5° C | 41% | 1023.6 hPa | 0 mm | - | 515 W/m² | - |
| 1777447045 | 5° C | 48% | 1023.7 hPa | 0 mm | - | 519 W/m² | - |
* Rain latest hour (hover to see other rain measurements)
** Current wind speed in m/s (hover to see current wind gust speed)